• MPC Preparation (Info)

  • MPEC 2016-E49 : 2016 EE27

    The following Minor Planet Electronic Circular may be linked-to from your own Web pages, but must not otherwise be redistributed electronically.

    A form allowing access to any MPEC is at the bottom of this page.


    Read MPEC 2016-E48 Read MPEC 2016-E50


    M.P.E.C. 2016-E49                                Issued 2016 Mar. 5, 16:32 UT
    
         The Minor Planet Electronic Circulars contain information on unusual
             minor planets and routine data on comets.  They are published
        on behalf of Division F of the International Astronomical Union by the
              Minor Planet Center, Smithsonian Astrophysical Observatory,
                              Cambridge, MA 02138, U.S.A.
    
                 Prepared using the Tamkin Foundation Computer Network
    
                                  MPC@CFA.HARVARD.EDU
                URL https://www.minorplanetcenter.net/    ISSN 1523-6714
    
                                       2016 EE27
    
    Observations:
         K16E27E  C2016 03 03.29188 11 11 40.25 +19 29 39.9          21.0 VqEE049G96
         K16E27E* C2016 03 03.29238 11 11 40.14 +19 29 39.9          20.6 VqEE049G96
         K16E27E  C2016 03 03.29724 11 11 38.91 +19 29 35.7          20.7 VqEE049G96
         K16E27E  C2016 03 03.29774 11 11 38.76 +19 29 35.3          20.8 VqEE049G96
         K16E27E  C2016 03 03.30260 11 11 37.62 +19 29 30.8          21.1 VqEE049G96
         K16E27E  C2016 03 03.30309 11 11 37.49 +19 29 30.4          21.4 VqEE049G96
         K16E27E  C2016 03 03.30846 11 11 36.19 +19 29 25.7          21.4 VqEE049G96
         K16E27E  C2016 03 03.91869 11 09 24.93 +19 20 12.0          20.7 VLEE049033
         K16E27E  C2016 03 04.00108 11 09 06.95 +19 19 02.1          20.8 VLEE049033
         K16E27E  C2016 03 04.32375 11 08 03.02 +19 14 48.5          21.1 VqEE049G96
         K16E27E  C2016 03 04.32881 11 08 01.95 +19 14 44.6          21.0 VqEE049G96
         K16E27E  C2016 03 04.33386 11 08 00.87 +19 14 40.4          21.3 VqEE049G96
         K16E27E  C2016 03 04.33892 11 07 59.80 +19 14 36.1          20.7 VqEE049G96
         K16E27E  C2016 03 05.27200 11 05 12.48 +19 02 24.9          21.8 VqEE049G96
         K16E27E  C2016 03 05.28432 11 05 10.21 +19 02 15.9          21.3 VqEE049G96
         K16E27E  C2016 03 05.29048 11 05 09.06 +19 02 11.3          21.8 VqEE049G96
    
    Observer details:
    033 Karl Schwarzschild Observatory, Tautenburg.  Observers B. Stecklum,
        C. Hoegner, C. Lauer.  Measurer B. Stecklum.  1.34-m f/3 Schmidt + CCD.
    G96 Mt. Lemmon Survey.  Observer A. D. Grauer.  Measurers E. J. Christensen,
        D. C. Fuls, A. R. Gibbs, A. D. Grauer, J. A. Johnson, R. A. Kowalski,
        S. M. Larson, G. J. Leonard, R. G. Matheny, R. L. Seaman, F. C. Shelly.
        1.5-m reflector + CCD.
    
    Orbital elements:
    2016 EE27                                                Earth MOID = 0.0203 AU
    Epoch 2016 Jan. 13.0 TT = JDT 2457400.5                 MPC
    M   1.24204              (2000.0)            P               Q
    n   0.23152472     Peri.  288.68490     +0.44280318     -0.89527606
    a   2.6266637      Node   134.92919     +0.84653210     +0.39941230
    e   0.7850884      Incl.    3.97290     +0.29548055     +0.19735903
    P   4.26           H   23.9           G   0.15           U   7
    Residuals in seconds of arc
    160303 G96  0.1-  0.4-    160303 G96  0.4+  0.2+    160304 G96  0.3-  0.3-
    160303 G96  0.1+  0.0     160303 033  0.7+  0.3+    160305 G96  0.1-  0.2+
    160303 G96  0.3-  0.2+    160304 033  1.3+  0.4-    160305 G96  0.2+  0.2+
    160303 G96  0.7-  0.2+    160304 G96  0.3-  0.4-    160305 G96  0.0   0.1+
    160303 G96  0.2+  0.1+    160304 G96  0.3-  0.1-
    160303 G96  0.0   0.1+    160304 G96  0.4-  0.2-
    
    Ephemeris:
    2016 EE27                a,e,i = 2.63, 0.79, 4                   q = 0.5645
    Date    TT    R. A. (2000) Decl.     Delta      r     Elong.  Phase     V
    2016 02 04    21 52 34.7 -13 51 07   0.2148  0.7761    11.2   165.7    33.5
    ...
    2016 02 19    18 11 42.0 +09 31 17   0.03433 0.9728    62.1   116.1    21.1
    ...
    2016 02 27    11 45 55.7 +21 24 58   0.09591 1.0803   159.1    19.1    19.9
    ...
    2016 03 04    11 09 07.5 +19 19 31   0.1725  1.1603   166.9    11.2    21.1
    2016 03 05    11 05 58.6 +19 06 03   0.1857  1.1736   166.9    11.0    21.3
    2016 03 06    11 03 15.2 +18 53 46   0.1991  1.1868   166.7    11.1    21.5
    ...
    2016 03 12    10 52 38.7 +17 55 26   0.2814  1.2654   162.9    13.4    22.4
    ...
    2016 03 20    10 46 35.8 +16 56 04   0.3978  1.3680   155.6    17.5    23.5
    ...
    2016 04 04    10 45 52.3 +15 16 37   0.6372  1.5533   142.1    23.3    25.0
    
    A. U. Tomatic                (C) Copyright 2016 MPC           M.P.E.C. 2016-E49
    

    Read MPEC 2016-E48 Read MPEC 2016-E50


    MPEC number:

    Enter an MPEC number in one of the following forms:

    • 1997-B01 (the full form)
    • J97B01 (the packed version of the full form)
    • B01 (the abbreviated form)